STARLINK-1744 (46587 NORAD) Tracking and Keplerian Element Data

This shows tracking and keplerian element data for the satellite.

Feedback or suggestion? Click here.




ElementValue
Catalog46587
NameSTARLINK-1744
Epoch Orbit178
Epoch Day304.91667824
Epoch Year2020
RAAN318.0931
Inclination52.985
Eccentricity0.0001997
Argument of Perigee289.1951
Mean Anonmoly14.1002
Mean Motion15.93737745
Decay Rate-0.00609058
L11 46587U 20070BH 20304.91667824 -.00609058 12832-3 -16268-2 0 9995
L22 46587 52.9850 318.0931 0001997 289.1951 14.1002 15.93737745 1782

Live tracking and technical data element details for STARLINK-1744 (NORAD 46587). STARLINK-1744 can be tracked NOW for your location showing map with azimuth and elevation plus other details from your city location.

Track the satellite on the map from your city or location and see movement details for azimuth, elevation, latitude, longitude, range, height, and movement on the map or in text.







IsCatalogInMostPopularTable: catalog: 46587, numindb: 3
Update: records affected: 1



GetName: 46587 STARLINK-1744

Hit Count: updated at: Sat, 31 Oct 2020 09:37:49 GMT